Overview Statistics Trail Chart Weather Telemetry Raw packets
 

This is the latest recevied weather packets stored in our database for station/object K7SKM. If no packets are shown the sender has not sent any weather packets the latest 10 day(s).

<< 79 80 81 82 83 84 85 >>
Time Temp. Humidity Pressure Rain* Wind** Luminosity Snow
1788103777 15° C 70% 1025.2 hPa 0 mm - 79 W/m² -
1788103473 14.44° C 70% 1025.2 hPa 0 mm - 72 W/m² -
1788103171 14.44° C 71% 1025.2 hPa 0 mm - 78 W/m² -
1788102866 14.44° C 72% 1025.4 hPa 0 mm - 80 W/m² -
1788102561 13.89° C 72% 1025.3 hPa 0 mm - 83 W/m² -
1788102261 13.89° C 73% 1025.2 hPa 0 mm - 81 W/m² -
1788101954 13.89° C 73% 1025.3 hPa 0 mm - 72 W/m² -
1788101649 13.33° C 74% 1025.3 hPa 0 mm - 62 W/m² -
1788101344 13.33° C 75% 1025.3 hPa 0 mm - 57 W/m² -
1788101041 12.78° C 76% 1025.2 hPa 0 mm - 49 W/m² -
1788100735 12.78° C 76% 1025.1 hPa 0 mm - 44 W/m² -
1788100430 12.78° C 77% 1025.2 hPa 0 mm - 49 W/m² -
1788100130 12.78° C 77% 1025.2 hPa 0 mm - 41 W/m² -
1788099825 12.22° C 77% 1024.8 hPa 0 mm - 29 W/m² -
1788099520 12.22° C 77% 1024.9 hPa 0 mm - 19 W/m² -
1788099215 12.22° C 77% 1025 hPa 0 mm - 13 W/m² -
1788098910 12.22° C 78% 1025 hPa 0 mm - 9 W/m² -
1788098605 12.22° C 78% 1024.8 hPa 0 mm - 7 W/m² -
1788098299 12.22° C 78% 1024.7 hPa 0 mm - 5 W/m² -
1788097995 12.22° C 78% 1024.8 hPa 0 mm - 4 W/m² -
1788097691 12.22° C 78% 1024.6 hPa 0 mm - 1 W/m² -
1788097390 12.22° C 78% 1024.7 hPa 0 mm - 0 W/m² -
1788097087 12.22° C 78% 1024.9 hPa 0 mm - 0 W/m² -
1788096782 12.22° C 78% 1024.7 hPa 0 mm - 0 W/m² -
1788096477 12.22° C 78% 1024.8 hPa 0 mm - 0 W/m² -

* Rain latest hour (hover to see other rain measurements)
** Current wind speed in m/s (hover to see current wind gust speed)